| time (UTC) | temp F | wind direction | speed MPH | gust MPH | rain 1hr in | rain 24hr in | rain mn in | humidity % | barometer mb |
| 20260503222042 | 38 | 279 | 4.0 | 8.0 | 0.00 | 0.29 | 0.00 | 75 | 1000.1 |
| 20260503221553 | 38 | 241 | 4.0 | 14.0 | 0.00 | 0.29 | 0.00 | 73 | 999.9 |
| 20260503221046 | 38 | 273 | 5.0 | 14.0 | 0.00 | 0.29 | 0.00 | 71 | 1000.0 |
| 20260503220542 | 38 | 192 | 2.0 | 9.0 | 0.00 | 0.29 | 0.00 | 69 | 999.8 |
| 20260503220105 | 38 | 105 | 2.0 | 10.0 | 0.00 | 0.29 | 0.00 | 69 | 999.9 |
| 20260503215542 | 38 | 133 | 3.0 | 10.0 | 0.00 | 0.29 | 0.29 | 69 | 999.9 |
| 20260503215042 | 38 | 115 | 1.0 | 9.0 | 0.00 | 0.29 | 0.29 | 71 | 999.9 |
| 20260503214551 | 38 | 152 | 3.0 | 9.0 | 0.00 | 0.29 | 0.29 | 72 | 999.9 |
| 20260503214046 | 38 | 145 | 5.0 | 9.0 | 0.00 | 0.29 | 0.29 | 71 | 999.9 |
| 20260503213542 | 38 | 128 | 0.0 | 3.0 | 0.00 | 0.29 | 0.29 | 74 | 999.9 |
| 20260503213049 | 38 | 0 | 0.0 | 3.0 | 0.00 | 0.29 | 0.29 | 75 | 999.9 |
| 20260503212542 | 38 | 25 | 1.0 | 3.0 | 0.00 | 0.29 | 0.29 | 74 | 1000.0 |
| 20260503212042 | 38 | 117 | 0.0 | 3.0 | 0.00 | 0.29 | 0.29 | 73 | 1000.0 |
| 20260503211606 | 38 | 120 | 0.0 | 3.0 | 0.00 | 0.29 | 0.29 | 73 | 1000.1 |
| 20260503211047 | 38 | 0 | 0.0 | 0.0 | 0.00 | 0.29 | 0.29 | 71 | 999.9 |
| 20260503210542 | 38 | 0 | 0.0 | 0.0 | 0.00 | 0.29 | 0.29 | 71 | 1000.0 |
| 20260503210057 | 38 | 0 | 0.0 | 3.0 | 0.00 | 0.29 | 0.29 | 70 | 1000.1 |
| 20260503205542 | 39 | 0 | 0.0 | 3.0 | 0.00 | 0.29 | 0.29 | 70 | 1000.1 |
| 20260503205044 | 39 | 0 | 0.0 | 3.0 | 0.00 | 0.29 | 0.29 | 70 | 1000.1 |
| 20260503204553 | 39 | 0 | 0.0 | 4.0 | 0.00 | 0.29 | 0.29 | 69 | 1000.2 |
| 20260503204042 | 39 | 0 | 0.0 | 4.0 | 0.00 | 0.29 | 0.29 | 68 | 1000.2 |
| 20260503203542 | 39 | 102 | 1.0 | 7.0 | 0.00 | 0.29 | 0.29 | 68 | 1000.3 |
| 20260503203047 | 39 | 128 | 3.0 | 8.0 | 0.00 | 0.29 | 0.29 | 67 | 1000.3 |
| 20260503202543 | 39 | 139 | 3.0 | 8.0 | 0.00 | 0.29 | 0.29 | 67 | 1000.4 |
| 20260503202042 | 39 | 129 | 3.0 | 10.0 | 0.00 | 0.29 | 0.29 | 67 | 1000.4 |
| 20260503201547 | 39 | 128 | 3.0 | 10.0 | 0.00 | 0.29 | 0.29 | 68 | 1000.4 |
| 20260503201042 | 39 | 146 | 4.0 | 10.0 | 0.00 | 0.29 | 0.29 | 68 | 1000.5 |
| 20260503200546 | 39 | 115 | 3.0 | 10.0 | 0.00 | 0.29 | 0.29 | 68 | 1000.5 |
| 20260503200050 | 39 | 138 | 2.0 | 10.0 | 0.00 | 0.29 | 0.29 | 68 | 1000.6 |
| 20260503195542 | 39 | 116 | 3.0 | 8.0 | 0.00 | 0.29 | 0.29 | 67 | 1000.6 |
| 20260503195041 | 39 | 148 | 3.0 | 9.0 | 0.00 | 0.29 | 0.29 | 67 | 1000.7 |
| 20260503194555 | 39 | 146 | 2.0 | 9.0 | 0.00 | 0.29 | 0.29 | 68 | 1000.7 |
| 20260503194043 | 39 | 128 | 3.0 | 7.0 | 0.00 | 0.29 | 0.29 | 68 | 1000.7 |
| 20260503193543 | 38 | 104 | 2.0 | 7.0 | 0.00 | 0.29 | 0.29 | 67 | 1000.7 |
| 20260503193054 | 38 | 154 | 3.0 | 7.0 | 0.00 | 0.29 | 0.29 | 68 | 1000.7 |
| 20260503192541 | 38 | 163 | 3.0 | 7.0 | 0.00 | 0.29 | 0.29 | 68 | 1000.6 |
| 20260503192043 | 38 | 123 | 2.0 | 6.0 | 0.00 | 0.29 | 0.29 | 68 | 1000.7 |
| 20260503191548 | 38 | 113 | 2.0 | 7.0 | 0.00 | 0.29 | 0.29 | 68 | 1000.7 |
| 20260503191042 | 39 | 119 | 1.0 | 10.0 | 0.00 | 0.29 | 0.29 | 67 | 1000.7 |
| 20260503190544 | 39 | 159 | 4.0 | 10.0 | 0.00 | 0.29 | 0.29 | 67 | 1000.8 |
| 20260503190049 | 38 | 121 | 4.0 | 10.0 | 0.00 | 0.29 | 0.29 | 66 | 1000.7 |
| 20260503185543 | 38 | 111 | 2.0 | 9.0 | 0.00 | 0.29 | 0.29 | 67 | 1000.9 |
| 20260503185044 | 38 | 147 | 3.0 | 10.0 | 0.00 | 0.29 | 0.29 | 67 | 1001.0 |
| 20260503184547 | 38 | 105 | 4.0 | 10.0 | 0.00 | 0.29 | 0.29 | 66 | 1001.0 |
| 20260503184042 | 38 | 113 | 5.0 | 10.0 | 0.00 | 0.29 | 0.29 | 66 | 1001.1 |
| 20260503183542 | 38 | 128 | 3.0 | 9.0 | 0.00 | 0.29 | 0.29 | 66 | 1001.1 |
| 20260503183048 | 38 | 160 | 3.0 | 8.0 | 0.00 | 0.29 | 0.29 | 67 | 1001.3 |
| 20260503182543 | 38 | 130 | 3.0 | 9.0 | 0.00 | 0.29 | 0.29 | 66 | 1001.3 |
| 20260503182043 | 38 | 118 | 3.0 | 10.0 | 0.00 | 0.29 | 0.29 | 67 | 1001.3 |
| 20260503181618 | 38 | 120 | 4.0 | 10.0 | 0.00 | 0.29 | 0.29 | 68 | 1001.3 |
| 20260503181043 | 38 | 154 | 3.0 | 8.0 | 0.00 | 0.29 | 0.29 | 68 | 1001.5 |
| 20260503180542 | 38 | 137 | 3.0 | 12.0 | 0.00 | 0.29 | 0.29 | 68 | 1001.5 |
| 20260503180100 | 38 | 164 | 4.0 | 12.0 | 0.00 | 0.29 | 0.29 | 68 | 1001.5 |
| 20260503175541 | 38 | 121 | 2.0 | 11.0 | 0.00 | 0.29 | 0.29 | 69 | 1001.6 |
| 20260503175041 | 38 | 113 | 4.0 | 10.0 | 0.00 | 0.29 | 0.29 | 69 | 1001.7 |
| 20260503174555 | 38 | 106 | 3.0 | 7.0 | 0.00 | 0.29 | 0.29 | 71 | 1001.7 |
| 20260503174043 | 38 | 123 | 3.0 | 8.0 | 0.00 | 0.29 | 0.29 | 71 | 1001.8 |
| 20260503173542 | 38 | 101 | 4.0 | 8.0 | 0.00 | 0.29 | 0.29 | 72 | 1001.9 |
| 20260503173056 | 38 | 104 | 2.0 | 8.0 | 0.00 | 0.29 | 0.29 | 75 | 1001.9 |
| 20260503172542 | 38 | 102 | 3.0 | 8.0 | 0.00 | 0.29 | 0.29 | 75 | 1002.0 |
| 20260503172043 | 38 | 105 | 4.0 | 8.0 | 0.00 | 0.29 | 0.29 | 75 | 1002.1 |
| 20260503171543 | 38 | 99 | 3.0 | 8.0 | 0.00 | 0.29 | 0.29 | 75 | 1002.1 |
| 20260503171042 | 38 | 96 | 5.0 | 8.0 | 0.00 | 0.29 | 0.29 | 75 | 1002.2 |
| 20260503170542 | 38 | 108 | 4.0 | 9.0 | 0.00 | 0.29 | 0.29 | 75 | 1002.3 |
| 20260503150541 | 38 | 120 | 7.0 | 11.0 | 0.00 | 0.29 | 0.29 | 75 | 1004.3 |
| 20260503131041 | 35 | 263 | 8.0 | 26.0 | 0.02 | 0.29 | 0.29 | 86 | 1006.0 |
| 20260503130541 | 36 | 313 | 11.0 | 19.0 | 0.03 | 0.29 | 0.29 | 84 | 1006.2 |
| 20260503120106 | 35 | 258 | 6.0 | 15.0 | 0.07 | 0.25 | 0.25 | 87 | 1005.9 |
| 20260503110542 | 35 | 273 | 6.0 | 11.0 | 0.06 | 0.21 | 0.19 | 87 | 1005.8 |
| 20260503090110 | 34 | 149 | 1.0 | 8.0 | 0.02 | 0.21 | 0.11 | 85 | 1005.7 |
| 20260503081558 | 35 | 200 | 2.0 | 8.0 | 0.04 | 0.23 | 0.10 | 83 | 1005.8 |
| 20260503081043 | 35 | 202 | 3.0 | 12.0 | 0.03 | 0.22 | 0.09 | 83 | 1005.8 |
| 20260503080545 | 35 | 257 | 4.0 | 12.0 | 0.04 | 0.22 | 0.09 | 82 | 1005.8 |
| 20260503072543 | 35 | 251 | 7.0 | 16.0 | 0.03 | 0.19 | 0.06 | 80 | 1005.7 |
| 20260503072043 | 35 | 178 | 3.0 | 9.0 | 0.04 | 0.19 | 0.06 | 79 | 1005.8 |
| 20260503071559 | 35 | 277 | 2.0 | 11.0 | 0.03 | 0.18 | 0.05 | 80 | 1005.7 |
| 20260503071047 | 35 | 182 | 2.0 | 11.0 | 0.03 | 0.18 | 0.05 | 81 | 1005.7 |
| 20260503070543 | 35 | 252 | 4.0 | 11.0 | 0.03 | 0.18 | 0.04 | 81 | 1005.8 |
| 20260503060114 | 35 | 321 | 4.0 | 18.0 | 0.00 | 0.18 | 0.01 | 81 | 1005.9 |
| 20260503055040 | 35 | 247 | 4.0 | 10.0 | 0.00 | 0.18 | 0.01 | 80 | 1005.9 |
| 20260503054552 | 35 | 281 | 2.0 | 4.0 | 0.00 | 0.18 | 0.01 | 80 | 1005.6 |
| 20260503054042 | 35 | 259 | 1.0 | 9.0 | 0.00 | 0.18 | 0.01 | 81 | 1005.7 |
| 20260503053541 | 35 | 259 | 2.0 | 9.0 | 0.00 | 0.18 | 0.01 | 81 | 1005.7 |
| 20260503053048 | 34 | 265 | 2.0 | 8.0 | 0.00 | 0.18 | 0.01 | 81 | 1005.8 |
| 20260503052543 | 34 | 257 | 1.0 | 7.0 | 0.00 | 0.18 | 0.01 | 82 | 1005.9 |
| 20260503052043 | 34 | 241 | 3.0 | 7.0 | 0.00 | 0.17 | 0.00 | 81 | 1005.9 |
| 20260503051551 | 34 | 227 | 1.0 | 6.0 | 0.00 | 0.17 | 0.00 | 83 | 1005.9 |
| 20260503051041 | 34 | 273 | 0.0 | 9.0 | 0.00 | 0.17 | 0.00 | 83 | 1006.0 |
| 20260503050541 | 34 | 155 | 3.0 | 9.0 | 0.00 | 0.17 | 0.00 | 83 | 1006.0 |
| 20260503050049 | 34 | 294 | 1.0 | 12.0 | 0.00 | 0.17 | 0.00 | 83 | 1006.0 |
| 20260503045541 | 34 | 262 | 2.0 | 13.0 | 0.00 | 0.17 | 0.00 | 82 | 1006.0 |
| 20260503045040 | 34 | 352 | 4.0 | 13.0 | 0.00 | 0.17 | 0.00 | 81 | 1006.0 |
| 20260503044611 | 34 | 311 | 6.0 | 13.0 | 0.00 | 0.17 | 0.00 | 81 | 1006.0 |
| 20260503044040 | 34 | 207 | 6.0 | 12.0 | 0.00 | 0.17 | 0.00 | 77 | 1005.7 |
| 20260503043540 | 33 | 250 | 4.0 | 9.0 | 0.00 | 0.17 | 0.00 | 77 | 1005.7 |
| 20260503043050 | 33 | 5 | 1.0 | 7.0 | 0.00 | 0.17 | 0.00 | 78 | 1005.9 |
| 20260503042541 | 33 | 308 | 3.0 | 8.0 | 0.00 | 0.17 | 0.00 | 78 | 1005.8 |
| 20260503042044 | 33 | 225 | 3.0 | 9.0 | 0.00 | 0.17 | 0.00 | 78 | 1005.8 |
| 20260503041554 | 33 | 225 | 4.0 | 10.0 | 0.00 | 0.17 | 0.00 | 78 | 1005.7 |
| 20260503041042 | 33 | 233 | 3.0 | 10.0 | 0.00 | 0.17 | 0.00 | 79 | 1005.9 |
| 20260503040541 | 33 | 205 | 5.0 | 10.0 | 0.00 | 0.17 | 0.00 | 79 | 1005.9 |
| 20260503040049 | 33 | 231 | 1.0 | 7.0 | 0.00 | 0.17 | 0.00 | 78 | 1005.8 |
| 20260503035543 | 33 | 220 | 2.0 | 8.0 | 0.00 | 0.20 | 0.00 | 78 | 1005.8 |
| 20260503035041 | 33 | 237 | 3.0 | 8.0 | 0.00 | 0.20 | 0.00 | 78 | 1005.8 |
| 20260503034548 | 33 | 275 | 3.0 | 8.0 | 0.00 | 0.20 | 0.00 | 78 | 1005.8 |
| 20260503034042 | 33 | 259 | 4.0 | 8.0 | 0.00 | 0.20 | 0.00 | 80 | 1005.8 |
| 20260503033542 | 33 | 215 | 2.0 | 10.0 | 0.00 | 0.20 | 0.00 | 81 | 1005.8 |
| 20260503033046 | 33 | 236 | 4.0 | 10.0 | 0.00 | 0.20 | 0.00 | 81 | 1005.9 |
| 20260503032542 | 33 | 257 | 4.0 | 8.0 | 0.00 | 0.20 | 0.00 | 82 | 1005.8 |
| 20260503032042 | 32 | 246 | 4.0 | 9.0 | 0.00 | 0.20 | 0.00 | 83 | 1006.0 |
| 20260503031549 | 32 | 248 | 3.0 | 9.0 | 0.00 | 0.20 | 0.00 | 85 | 1005.9 |
| 20260503031042 | 32 | 252 | 2.0 | 9.0 | 0.00 | 0.20 | 0.00 | 86 | 1006.0 |
| 20260503030541 | 32 | 263 | 3.0 | 9.0 | 0.00 | 0.20 | 0.00 | 87 | 1005.9 |
| 20260503030055 | 32 | 257 | 3.0 | 11.0 | 0.00 | 0.20 | 0.00 | 87 | 1006.0 |
| 20260503025541 | 32 | 251 | 3.0 | 13.0 | 0.00 | 0.22 | 0.00 | 87 | 1005.9 |
| 20260503025044 | 32 | 238 | 5.0 | 14.0 | 0.00 | 0.22 | 0.00 | 86 | 1006.0 |
| 20260503024600 | 32 | 261 | 9.0 | 14.0 | 0.00 | 0.22 | 0.00 | 86 | 1006.2 |
| 20260503024043 | 32 | 263 | 1.0 | 2.0 | 0.00 | 0.22 | 0.00 | 87 | 1006.0 |
| 20260503023544 | 32 | 0 | 0.0 | 0.0 | 0.00 | 0.22 | 0.00 | 87 | 1005.8 |
| 20260503023049 | 32 | 0 | 0.0 | 0.0 | 0.00 | 0.22 | 0.00 | 87 | 1005.7 |
| 20260503022543 | 32 | 0 | 0.0 | 0.0 | 0.00 | 0.22 | 0.00 | 87 | 1005.9 |
| 20260503022045 | 32 | 0 | 0.0 | 0.0 | 0.00 | 0.22 | 0.00 | 87 | 1005.9 |
| 20260503021547 | 32 | 0 | 0.0 | 2.0 | 0.00 | 0.22 | 0.00 | 87 | 1006.1 |
| 20260503021043 | 32 | 0 | 0.0 | 2.0 | 0.00 | 0.22 | 0.00 | 87 | 1006.1 |
| 20260503020543 | 32 | 315 | 0.0 | 2.0 | 0.00 | 0.22 | 0.00 | 87 | 1006.1 |
| 20260503020046 | 32 | 0 | 0.0 | 2.0 | 0.00 | 0.22 | 0.00 | 87 | 1006.1 |
| 20260503015543 | 32 | 0 | 0.0 | 2.0 | 0.00 | 0.25 | 0.00 | 87 | 1006.3 |
| 20260503015042 | 32 | 188 | 0.0 | 3.0 | 0.00 | 0.25 | 0.00 | 87 | 1006.2 |
| 20260503014554 | 32 | 0 | 1.0 | 4.0 | 0.00 | 0.25 | 0.00 | 87 | 1006.2 |
| 20260503014043 | 32 | 275 | 1.0 | 8.0 | 0.00 | 0.25 | 0.00 | 87 | 1006.2 |
| 20260503013543 | 32 | 306 | 2.0 | 11.0 | 0.00 | 0.25 | 0.00 | 87 | 1006.2 |
| 20260503013057 | 32 | 225 | 5.0 | 12.0 | 0.00 | 0.25 | 0.00 | 87 | 1006.3 |
| 20260503012546 | 32 | 238 | 3.0 | 12.0 | 0.00 | 0.25 | 0.00 | 87 | 1006.3 |
| 20260503012043 | 32 | 209 | 5.0 | 12.0 | 0.00 | 0.25 | 0.00 | 87 | 1006.2 |
| 20260503011552 | 32 | 219 | 0.0 | 3.0 | 0.00 | 0.25 | 0.00 | 86 | 1006.0 |
| 20260503011042 | 32 | 250 | 0.0 | 3.0 | 0.00 | 0.25 | 0.00 | 86 | 1005.9 |
| 20260503010542 | 32 | 247 | 0.0 | 3.0 | 0.00 | 0.25 | 0.00 | 86 | 1006.1 |
| 20260503010052 | 32 | 0 | 0.0 | 0.0 | 0.00 | 0.25 | 0.00 | 87 | 1006.0 |
| 20260503005543 | 32 | 0 | 0.0 | 1.0 | 0.00 | 0.26 | 0.00 | 86 | 1006.1 |
| 20260503005045 | 32 | 0 | 0.0 | 4.0 | 0.00 | 0.26 | 0.00 | 87 | 1006.1 |
| 20260503004547 | 33 | 319 | 0.0 | 4.0 | 0.00 | 0.26 | 0.00 | 87 | 1006.1 |
| 20260503004043 | 33 | 340 | 2.0 | 8.0 | 0.00 | 0.26 | 0.00 | 87 | 1006.0 |
| 20260503003543 | 33 | 256 | 3.0 | 8.0 | 0.00 | 0.26 | 0.00 | 87 | 1006.1 |
| 20260503003052 | 33 | 283 | 2.0 | 7.0 | 0.00 | 0.26 | 0.00 | 88 | 1006.2 |
| 20260503002546 | 33 | 287 | 1.0 | 9.0 | 0.00 | 0.26 | 0.00 | 88 | 1006.2 |
| 20260503002043 | 33 | 321 | 1.0 | 9.0 | 0.00 | 0.26 | 0.00 | 88 | 1006.2 |
| 20260503001555 | 33 | 211 | 3.0 | 9.0 | 0.00 | 0.26 | 0.00 | 88 | 1006.3 |
| 20260503001048 | 32 | 184 | 1.0 | 6.0 | 0.00 | 0.26 | 0.00 | 87 | 1006.1 |
| 20260503000542 | 33 | 266 | 1.0 | 6.0 | 0.00 | 0.26 | 0.00 | 86 | 1006.2 |
| 20260503000052 | 33 | 254 | 2.0 | 6.0 | 0.00 | 0.26 | 0.00 | 87 | 1006.2 |
| 20260502235542 | 33 | 330 | 2.0 | 6.0 | 0.00 | 0.28 | 0.00 | 87 | 1006.2 |
| 20260502235043 | 33 | 238 | 1.0 | 5.0 | 0.00 | 0.28 | 0.00 | 87 | 1006.2 |
| 20260502234601 | 33 | 224 | 1.0 | 14.0 | 0.00 | 0.28 | 0.00 | 87 | 1006.4 |
| 20260502234043 | 33 | 242 | 3.0 | 14.0 | 0.00 | 0.28 | 0.00 | 87 | 1006.1 |
| 20260502233547 | 33 | 271 | 5.0 | 12.0 | 0.00 | 0.28 | 0.00 | 85 | 1006.2 |
| 20260502233055 | 34 | 256 | 5.0 | 8.0 | 0.00 | 0.28 | 0.00 | 84 | 1006.0 |
| 20260502232544 | 34 | 276 | 2.0 | 6.0 | 0.00 | 0.28 | 0.00 | 84 | 1006.0 |
| 20260502232043 | 34 | 259 | 2.0 | 6.0 | 0.00 | 0.28 | 0.00 | 84 | 1005.9 |
| 20260502231548 | 34 | 204 | 2.0 | 6.0 | 0.00 | 0.28 | 0.00 | 84 | 1005.9 |
| 20260502231043 | 34 | 271 | 1.0 | 7.0 | 0.00 | 0.28 | 0.00 | 84 | 1005.9 |
| 20260502230543 | 34 | 298 | 3.0 | 7.0 | 0.00 | 0.28 | 0.00 | 84 | 1005.9 |
| 20260502230056 | 34 | 277 | 2.0 | 6.0 | 0.00 | 0.28 | 0.00 | 85 | 1006.0 |
| 20260502225544 | 34 | 249 | 2.0 | 5.0 | 0.00 | 0.28 | 0.00 | 86 | 1006.1 |
| 20260502225043 | 34 | 240 | 1.0 | 4.0 | 0.00 | 0.28 | 0.00 | 85 | 1006.1 |
| 20260502224555 | 34 | 232 | 1.0 | 3.0 | 0.00 | 0.28 | 0.00 | 85 | 1006.1 |
| 20260502224043 | 34 | 226 | 1.0 | 3.0 | 0.00 | 0.28 | 0.00 | 85 | 1006.1 |
| 20260502223543 | 34 | 231 | 1.0 | 4.0 | 0.00 | 0.28 | 0.00 | 85 | 1006.1 |
| 20260502223101 | 34 | 249 | 1.0 | 4.0 | 0.00 | 0.28 | 0.00 | 85 | 1006.1 |
| 20260502222543 | 34 | 242 | 1.0 | 4.0 | 0.00 | 0.28 | 0.00 | 85 | 1006.1 |